CW1492 Weather Reports


Display with metric or nautical units.
time (UTC)temp
F
wind
direction
speed
MPH
gust
MPH
rain 1hr
in
rain 24hr
in
rain mn
in
humidity
%
barometer
mb
20260904143357 71 257 2.0 3.0 0.00 0.01 0.01 82 1012.8
20260904143321 74 137 1.0 3.0 0.00 0.00 0.00 79 1011.6
20260904141901 69 309 2.0 4.0 0.00 0.01 0.01 87 1012.9
20260904141855 72 82 3.0 5.0 0.00 0.00 0.00 85 1011.7
20260904140406 68 270 0.0 3.0 0.00 0.01 0.01 90 1013.0
20260904134828 66 293 0.0 2.0 0.00 0.01 0.01 91 1013.0
20260904134815 70 126 3.0 4.0 0.00 0.00 0.00 87 1011.8
20260904133358 65 293 0.0 0.0 0.00 0.01 0.01 91 1013.0
20260904133333 68 107 2.0 3.0 0.00 0.00 0.00 93 1011.7
20260904131932 65 293 0.0 1.0 0.00 0.01 0.01 91 1012.9
20260904131849 66 278 1.0 4.0 0.00 0.00 0.00 98 1011.6
20260904130412 64 318 0.0 1.0 0.00 0.01 0.01 91 1012.8
20260904130350 64 325 1.0 3.0 0.00 0.00 0.00 99 1011.6
20260904124909 62 318 0.0 2.0 0.00 0.01 0.01 91 1013.0
20260904124813 63 337 1.0 3.0 0.00 0.00 0.00 99 1011.8
20260904123333 61 39 0.0 2.0 0.00 0.01 0.01 91 1013.0
20260904123322 62 5 1.0 3.0 0.00 0.00 0.00 99 1011.7
20260904121948 60 39 0.0 1.0 0.00 0.01 0.01 91 1012.9
20260904121906 61 69 0.0 1.0 0.00 0.00 0.00 99 1011.5
20260904120346 60 39 0.0 2.0 0.00 0.01 0.01 91 1012.8
20260904120332 60 69 0.0 1.0 0.00 0.00 0.00 98 1011.3
20260904114855 60 69 0.0 2.0 0.00 0.00 0.00 99 1011.1
20260904114825 59 89 0.0 0.0 0.00 0.01 0.01 91 1012.6
20260904113426 60 30 1.0 3.0 0.00 0.00 0.00 99 1011.2
20260904113421 59 89 0.0 1.0 0.00 0.01 0.01 90 1012.7
20260904113344 60 30 1.0 3.0 0.00 0.00 0.00 99 1011.2
20260904113339 59 89 0.0 1.0 0.00 0.01 0.01 90 1012.7
20260904111913 60 355 0.0 0.0 0.00 0.00 0.00 99 1011.0
20260904111900 59 60 0.0 0.0 0.00 0.01 0.01 90 1012.6
20260904110352 59 59 0.0 0.0 0.00 0.01 0.01 90 1012.6
20260904110338 60 355 0.0 1.0 0.00 0.00 0.00 98 1011.0
20260904104828 60 60 0.0 0.0 0.01 0.01 0.01 91 1012.6
20260904104822 60 355 0.0 1.0 0.00 0.00 0.00 98 1011.1
20260904103407 59 60 0.0 0.0 0.01 0.01 0.01 91 1012.6
20260904103325 59 355 1.0 2.0 0.00 0.00 0.00 99 1011.0
20260904101855 59 355 1.0 2.0 0.00 0.00 0.00 98 1010.9
20260904101848 59 89 0.0 0.0 0.01 0.01 0.01 90 1012.4
20260904100400 59 355 0.0 2.0 0.00 0.00 0.00 98 1010.6
20260904100329 59 89 0.0 0.0 0.01 0.01 0.01 90 1012.1
20260904094850 60 89 0.0 0.0 0.00 0.00 0.00 90 1012.1
20260904094845 59 304 1.0 2.0 0.00 0.00 0.00 98 1010.6
20260904093418 59 314 1.0 2.0 0.00 0.00 0.00 98 1010.6
20260904093339 60 89 0.0 0.0 0.00 0.00 0.00 90 1012.2
20260904091848 60 105 0.0 0.0 0.00 0.00 0.00 90 1012.1
20260904091842 59 314 1.0 1.0 0.00 0.01 0.00 98 1010.6
20260904090420 60 105 0.0 0.0 0.00 0.00 0.00 90 1012.0
20260904090320 59 292 1.0 1.0 0.00 0.01 0.00 98 1010.5
20260904084930 60 105 0.0 0.0 0.00 0.01 0.00 90 1012.1
20260904084850 59 292 0.0 1.0 0.00 0.01 0.00 98 1010.5
20260904083419 59 292 1.0 2.0 0.00 0.01 0.00 98 1010.6
20260904083327 60 76 0.0 0.0 0.00 0.01 0.00 90 1012.2
20260904081859 61 92 0.0 0.0 0.00 0.01 0.00 90 1012.1
20260904081820 59 292 1.0 2.0 0.00 0.01 0.00 98 1010.7
20260904080429 61 92 0.0 2.0 0.00 0.01 0.00 90 1012.0
20260904080328 59 296 1.0 2.0 0.00 0.01 0.00 98 1010.6
20260904074911 61 92 1.0 3.0 0.00 0.01 0.00 90 1012.0
20260904074825 60 296 1.0 2.0 0.00 0.01 0.00 98 1010.7
20260904073357 61 137 1.0 4.0 0.00 0.01 0.00 90 1012.4
20260904073331 60 296 0.0 2.0 0.00 0.01 0.00 98 1010.9
20260904071854 60 296 1.0 2.0 0.00 0.01 0.00 98 1011.0
20260904071840 62 168 0.0 2.0 0.00 0.01 0.00 90 1012.5
20260904070408 62 168 0.0 2.0 0.00 0.01 0.00 90 1012.5
20260904070324 60 279 1.0 2.0 0.00 0.01 0.00 98 1010.9
20260904064849 62 30 0.0 1.0 0.00 0.01 0.00 89 1012.5
20260904064844 60 293 0.0 1.0 0.00 0.01 0.00 98 1011.0
20260904063436 63 355 0.0 0.0 0.00 0.01 0.00 90 1012.6
20260904063405 61 293 1.0 1.0 0.00 0.01 0.00 97 1011.0
20260904061852 63 30 0.0 2.0 0.00 0.01 0.00 90 1012.6
20260904061828 61 293 1.0 2.0 0.00 0.03 0.00 98 1011.1
20260904060435 63 269 0.0 0.0 0.00 0.01 0.00 89 1012.6
20260904060331 61 293 1.0 3.0 0.00 0.03 0.00 97 1011.1
20260904054853 63 135 0.0 0.0 0.00 0.02 0.00 89 1012.8
20260904054830 62 293 1.0 1.0 0.00 0.03 0.00 98 1011.4
20260904053445 64 135 0.0 0.0 0.00 0.02 0.00 88 1013.1
20260904053335 62 293 1.0 1.0 0.00 0.03 0.00 97 1011.7
20260904051928 64 135 0.0 2.0 0.00 0.02 0.00 87 1013.5
20260904051828 62 293 1.0 1.0 0.00 0.03 0.00 97 1012.0
20260904050441 65 104 0.0 1.0 0.00 0.02 0.00 87 1013.3
20260904050334 62 293 1.0 2.0 0.00 0.03 0.00 97 1012.0
20260904044855 65 90 1.0 2.0 0.00 0.02 0.00 87 1013.4
20260904044813 63 293 1.0 2.0 0.00 0.03 0.00 97 1012.0
20260904043405 65 110 2.0 3.0 0.00 0.02 0.00 84 1013.4
20260904043338 63 293 0.0 2.0 0.00 0.03 0.00 97 1012.0
20260904041843 65 110 0.0 1.0 0.00 0.02 0.00 83 1013.4
20260904041828 63 293 1.0 2.0 0.00 0.03 0.03 97 1012.0
20260904040325 66 110 1.0 3.0 0.00 0.02 0.00 83 1013.5
20260904040318 64 293 1.0 2.0 0.00 0.03 0.03 97 1012.1
20260904034926 66 119 1.0 3.0 0.00 0.02 0.02 82 1013.4
20260904034824 64 293 0.0 1.0 0.00 0.03 0.03 97 1012.1
20260904033440 67 93 0.0 3.0 0.00 0.02 0.02 81 1013.7
20260904033413 65 293 1.0 2.0 0.00 0.03 0.03 97 1012.3
20260904033331 65 293 1.0 2.0 0.00 0.03 0.03 97 1012.3
20260904031845 67 94 2.0 4.0 0.00 0.02 0.02 81 1013.7
20260904031816 65 293 1.0 2.0 0.00 0.03 0.03 97 1012.3
20260904030328 68 95 1.0 3.0 0.00 0.02 0.02 81 1013.8
20260904030314 66 293 1.0 2.0 0.00 0.03 0.03 97 1012.4
20260904024834 68 92 3.0 4.0 0.00 0.02 0.02 81 1013.8
20260904024820 66 270 0.0 2.0 0.00 0.03 0.03 97 1012.4
20260904023358 68 88 0.0 2.0 0.00 0.02 0.02 81 1014.0
20260904023349 66 288 1.0 2.0 0.00 0.03 0.03 97 1012.6
20260904021908 69 88 1.0 4.0 0.00 0.02 0.02 80 1013.8
20260904021814 67 288 1.0 2.0 0.00 0.03 0.03 97 1012.5
20260904020451 70 89 1.0 3.0 0.00 0.02 0.02 80 1014.0
20260904020403 67 288 1.0 2.0 0.00 0.03 0.03 97 1012.5
20260904014841 70 96 1.0 3.0 0.00 0.02 0.02 79 1014.0
20260904014826 67 288 1.0 2.0 0.00 0.03 0.03 97 1012.6
20260904013334 68 282 1.0 2.0 0.00 0.03 0.03 96 1012.8
20260904011902 71 96 2.0 3.0 0.00 0.02 0.02 79 1014.1
20260904011835 68 282 1.0 2.0 0.00 0.03 0.03 96 1012.7
20260904010354 71 97 2.0 4.0 0.00 0.02 0.02 80 1014.1
20260904010322 68 282 1.0 2.0 0.00 0.03 0.03 96 1012.7
20260904004825 69 282 1.0 2.0 0.00 0.03 0.03 95 1012.6
20260904003353 70 281 1.0 2.0 0.00 0.03 0.03 94 1012.4
20260904003333 71 91 2.0 3.0 0.00 0.02 0.02 80 1013.9
20260904001921 71 72 3.0 4.0 0.00 0.02 0.02 82 1013.8
20260904001834 70 282 1.0 2.0 0.00 0.03 0.03 94 1012.3
20260904000342 71 108 3.0 5.0 0.00 0.02 0.02 82 1013.3
20260904000337 70 302 1.0 2.0 0.00 0.03 0.03 94 1011.9
20260903234951 71 92 3.0 4.0 0.00 0.02 0.02 82 1013.3
20260903234812 70 302 1.0 2.0 0.00 0.03 0.03 94 1011.8
20260903233341 71 302 1.0 2.0 0.00 0.03 0.03 93 1011.7
20260903233328 71 75 3.0 4.0 0.00 0.02 0.02 82 1013.1
20260903231921 72 104 2.0 5.0 0.00 0.02 0.02 81 1013.0
20260903231822 72 302 1.0 1.0 0.00 0.03 0.03 92 1011.5
20260903230408 73 99 2.0 4.0 0.00 0.02 0.02 79 1013.2
20260903230326 73 315 1.0 2.0 0.00 0.03 0.03 91 1011.8
20260903224938 75 78 2.0 4.0 0.00 0.02 0.02 77 1013.2
20260903224846 74 315 0.0 2.0 0.00 0.03 0.03 89 1011.8
20260903223414 77 71 2.0 4.0 0.00 0.02 0.02 74 1013.3
20260903223313 76 89 0.0 0.0 0.00 0.03 0.03 86 1012.0
20260903221912 79 123 1.0 3.0 0.00 0.02 0.02 72 1013.2
20260903221832 77 88 0.0 1.0 0.00 0.03 0.03 84 1011.8
20260903220357 79 214 2.0 4.0 0.00 0.02 0.02 71 1013.3
20260903214844 80 160 1.0 4.0 0.00 0.02 0.02 70 1013.5
20260903214815 78 136 2.0 3.0 0.00 0.03 0.03 82 1012.2
20260903213351 80 197 2.0 5.0 0.00 0.02 0.02 71 1013.9
20260903213318 77 277 1.0 2.0 0.00 0.03 0.03 82 1012.3
20260903211839 77 149 1.0 2.0 0.00 0.03 0.03 82 1012.1
20260903211827 79 278 1.0 3.0 0.00 0.02 0.02 74 1013.4
20260903210354 78 262 1.0 3.0 0.00 0.02 0.02 75 1013.5
20260903210340 77 157 1.0 5.0 0.00 0.03 0.03 83 1012.1
20260903204838 78 215 2.0 5.0 0.00 0.02 0.02 75 1013.5
20260903204820 76 140 3.0 5.0 0.00 0.03 0.03 84 1012.1
20260903203344 78 121 2.0 6.0 0.00 0.02 0.02 75 1013.5
20260903203341 76 153 3.0 6.0 0.00 0.03 0.03 84 1012.1
20260903201858 75 140 5.0 7.0 0.00 0.03 0.03 87 1012.0
20260903201829 78 128 2.0 6.0 0.00 0.02 0.02 75 1013.5
20260903200351 74 146 4.0 7.0 0.00 0.03 0.03 87 1012.1
20260903200346 78 187 3.0 5.0 0.00 0.02 0.02 79 1013.7
20260903194914 77 242 1.0 3.0 0.00 0.02 0.02 81 1013.8
20260903194812 75 150 4.0 5.0 0.00 0.03 0.03 86 1012.4
20260903193458 76 231 2.0 6.0 0.00 0.02 0.02 81 1014.0
20260903193416 76 231 2.0 6.0 0.00 0.02 0.02 81 1014.0
20260903193314 74 134 2.0 3.0 0.00 0.03 0.03 88 1012.5
20260903191853 74 266 2.0 5.0 0.00 0.02 0.02 85 1014.1
20260903191832 73 141 3.0 4.0 0.00 0.03 0.03 88 1012.6
20260903190441 72 327 1.0 3.0 0.00 0.02 0.02 85 1014.4
20260903190332 74 144 1.0 2.0 0.00 0.03 0.03 87 1012.8
20260903184904 72 224 1.0 2.0 0.00 0.02 0.02 84 1014.4
20260903184844 73 144 2.0 2.0 0.00 0.03 0.03 89 1012.8
20260903183327 72 224 1.0 3.0 0.00 0.02 0.02 84 1014.5
20260903183320 72 98 0.0 2.0 0.00 0.03 0.03 89 1013.0
20260903181847 72 9 0.0 1.0 0.00 0.03 0.03 90 1013.0
20260903181832 71 322 3.0 5.0 0.00 0.02 0.02 84 1014.6
20260903180353 72 9 1.0 2.0 0.00 0.03 0.03 88 1013.0
20260903174917 72 65 1.0 3.0 0.00 0.03 0.03 89 1013.0
20260903174838 70 318 2.0 4.0 0.00 0.02 0.02 85 1014.5
20260903173412 70 330 1.0 4.0 0.00 0.02 0.02 85 1014.6
20260903173410 72 141 1.0 2.0 0.00 0.03 0.03 88 1013.1
20260903171930 69 317 2.0 3.0 0.00 0.02 0.02 85 1014.8
20260903171827 71 140 1.0 2.0 0.00 0.03 0.03 88 1013.4
20260903170332 69 318 1.0 3.0 0.00 0.02 0.02 85 1015.1
20260903170328 71 141 1.0 4.0 0.00 0.03 0.03 88 1013.4
20260903164849 71 130 2.0 3.0 0.00 0.03 0.03 89 1013.6
20260903164834 70 313 1.0 3.0 0.00 0.02 0.02 84 1015.0
20260903163417 70 123 2.0 3.0 0.00 0.03 0.03 91 1013.7
20260903163415 69 279 1.0 2.0 0.00 0.02 0.02 85 1015.2
20260903161857 68 115 0.0 2.0 0.00 0.02 0.02 86 1015.2
20260903161829 69 126 2.0 3.0 0.00 0.03 0.03 92 1013.7
20260903160413 69 130 2.0 3.0 0.00 0.03 0.03 92 1013.7
20260903160338 68 304 2.0 3.0 0.00 0.02 0.02 85 1015.5
20260903160331 69 130 2.0 3.0 0.00 0.03 0.03 92 1013.7
20260903154903 68 343 3.0 4.0 0.00 0.02 0.02 86 1015.3
20260903154826 68 116 2.0 4.0 0.00 0.03 0.03 93 1013.7
20260903153435 68 293 2.0 4.0 0.00 0.02 0.02 86 1015.3
20260903153405 67 117 2.0 3.0 0.00 0.03 0.03 95 1013.7
20260903153332 68 293 2.0 4.0 0.00 0.02 0.02 86 1015.3
20260903151855 66 201 1.0 3.0 0.00 0.02 0.02 87 1015.4
20260903151817 66 140 4.0 7.0 0.00 0.03 0.03 95 1014.2
20260903150410 66 245 0.0 2.0 0.00 0.02 0.02 88 1015.6
20260903150404 65 131 3.0 5.0 0.00 0.03 0.03 96 1014.2
20260903144829 65 111 0.0 0.0 0.00 0.02 0.02 88 1015.8
20260903144821 65 130 2.0 4.0 0.00 0.03 0.03 96 1014.3